Regional Weather Roundup
Issued by NWS Little Rock, AR

Home | Current Version | Previous Version | Text Only | Print | Product List | Glossary Off
Versions: 1 2 3 4 5 6 7 8 9 10 11 12 13 14 15 16 17 18 19 20 21 22 23 24 25 26 27 28 29 30 31 32

000
ASUS44 KLZK 241812
RWRLZK

WEATHER ROUNDUP FOR ARKANSAS
NATIONAL WEATHER SERVICE LITTLE ROCK AR
100 PM CDT MON APR 24 2017

NOTE: "FAIR" INDICATES FEW OR NO CLOUDS BELOW 12,000 FEET WITH NO
SIGNIFICANT WEATHER AND/OR OBSTRUCTIONS TO VISIBILITY.

ARZ001-003-010-029-241900-
NORTHWEST ARKANSAS

CITY           SKY/WX    TMP DP  RH WIND       PRES   REMARKS
FAYETTEVILLE   SUNNY     71  35  26 S12       29.88F
6HR MIN TEMP:  35; 6HR MAX TEMP:  71;

FORT SMITH     SUNNY     74  36  25 S8        29.88F
6HR MIN TEMP:  44; 6HR MAX TEMP:  74;

HARRISON       SUNNY     70  35  27 SE9       29.90F
6HR MIN TEMP:  45; 6HR MAX TEMP:  71;

BENTONVILLE    SUNNY     70  37  30 S10       29.87F
6HR MIN TEMP:  39; 6HR MAX TEMP:  70;

ROGERS         SUNNY     71  36  27 S15       29.87F
6HR MIN TEMP:  41; 6HR MAX TEMP:  71;

SILOAM SPGS    SUNNY     70  37  30 S14G20    29.86F
6HR MIN TEMP:  41; 6HR MAX TEMP:  70;

HIGHFILL       SUNNY     71  39  31 S13G23    29.86F
6HR MIN TEMP:  39; 6HR MAX TEMP:  71;

SPRINGDALE     SUNNY     72  36  26 SE8G18    29.89F
$$

ARZ004-005-016-241900-
NORTH CENTRAL ARKANSAS

CITY           SKY/WX    TMP DP  RH WIND       PRES   REMARKS
BATESVILLE     SUNNY    N/A N/A N/A SW6       29.91F
FLIPPIN        SUNNY    N/A N/A N/A SE3       29.87F
6HR MIN TEMP:  39; 6HR MAX TEMP:  70;

MTN HOME       SUNNY     69  31  24 VRB5      29.90F
6HR MIN TEMP:  41; 6HR MAX TEMP:  70;

$$

ARZ040-041-241900-
WEST CENTRAL ARKANSAS

CITY           SKY/WX    TMP DP  RH WIND       PRES   REMARKS
MENA           SUNNY     75  37  25 SE7       29.91F
MOUNT IDA      SUNNY     74  37  26 CALM      29.89F
6HR MIN TEMP:  40; 6HR MAX TEMP:  74;

$$

ARZ009-017-025-026-028-241900-
NORTHEAST ARKANSAS

CITY           SKY/WX    TMP DP  RH WIND       PRES   REMARKS
CORNING        LGT RAIN  72  45  37 N3        29.90F
JONESBORO      SUNNY     72  48  42 N8        29.90F
6HR MIN TEMP:  50; 6HR MAX TEMP:  72;

NEWPORT        SUNNY     70  41  34 MISG        N/A
6HR MIN TEMP:  47; 6HR MAX TEMP:  71;

WALNUT RIDGE   SUNNY     72  43  35 CALM      29.90F
6HR MIN TEMP:  46; 6HR MAX TEMP:  72;

BLYTHEVILLE    SUNNY     70  55  59 N8        29.90F
6HR MIN TEMP:  47; 6HR MAX TEMP:  71;

NW BLYTHEVILLE SUNNY     70  54  56 N7        29.89F
$$

ARZ022-023-033-042-044-241900-
CENTRAL ARKANSAS

CITY           SKY/WX    TMP DP  RH WIND       PRES   REMARKS
LITTLE ROCK    MOSUNNY   73  37  27 VRB3      29.91F
6HR MIN TEMP:  47; 6HR MAX TEMP:  73;

N LITTLE ROCK    N/A     71  37  28 N5        29.92F
6HR MIN TEMP:  51; 6HR MAX TEMP:  72;

JACKSONVILLE   MOSUNNY   73  37  26 NW6       29.90F
6HR MIN TEMP:  44; 6HR MAX TEMP:  73;

CONWAY           N/A     72  36  26 CALM      29.90F
SEARCY         SUNNY     73  37  27 VRB7      29.92F
6HR MIN TEMP:  46; 6HR MAX TEMP:  73;

HOT SPRINGS    SUNNY     73  37  27 VRB5      29.91F
6HR MIN TEMP:  46; 6HR MAX TEMP:  73;

RUSSELLVILLE   SUNNY     71  36  27 VRB3      29.91F
6HR MIN TEMP:  41; 6HR MAX TEMP:  71;

$$

ARZ036-241900-
EAST ARKANSAS

CITY           SKY/WX    TMP DP  RH WIND       PRES   REMARKS
WEST MEMPHIS   SUNNY     70  53  54 N8        29.88F
6HR MIN TEMP:  49; 6HR MAX TEMP:  70;

$$

ARZ050-053-066-070-073-241900-
SOUTHWEST ARKANSAS

CITY           SKY/WX    TMP DP  RH WIND       PRES   REMARKS
ARKADELPHIA    FAIR      73  40  30 S7        29.92F
6HR MIN TEMP:  45; 6HR MAX TEMP:  74;

CAMDEN         SUNNY     75  32  20 NE3       29.92F HAZE
TEXARKANA      SUNNY     73  38  27 CALM      29.91F
6HR MIN TEMP:  44; 6HR MAX TEMP:  73;

EL DORADO      SUNNY     74  38  27 W9        29.93F
6HR MIN TEMP:  46; 6HR MAX TEMP:  75;

DE QUEEN       SUNNY     74  45  35 S8        29.89F
6HR MIN TEMP:  42; 6HR MAX TEMP:  74;

$$

ARZ056-057-069-241900-
SOUTHEAST ARKANSAS

CITY           SKY/WX    TMP DP  RH WIND       PRES   REMARKS
PINE BLUFF     SUNNY     72  42  34 N9        29.92F
6HR MIN TEMP:  48; 6HR MAX TEMP:  73;

STUTTGART      SUNNY     72  39  30 N10       29.92F
6HR MIN TEMP:  50; 6HR MAX TEMP:  72;

MONTICELLO     SUNNY     73  40  30 MISG      29.91F
6HR MIN TEMP:  51; 6HR MAX TEMP:  74;


$$






USA.gov is the U.S. government's official web portal to all federal, state and local government web resources and services.